TimeMST,TemperatureF,Dew PointF,Humidity,Sea Level PressureIn,VisibilityMPH,Wind Direction,Wind SpeedMPH,Gust SpeedMPH,PrecipitationIn,Events,Conditions,WindDirDegrees,DateUTC
12:53 AM,41.0,32.0,70,29.98,10.0,SSW,12.7,-,N/A,,Clear,210,2012-11-17 07:53:00
1:53 AM,42.1,32.0,67,29.98,10.0,SSW,15.0,-,N/A,,Scattered Clouds,200,2012-11-17 08:53:00
2:53 AM,41.0,30.9,67,29.99,10.0,South,15.0,-,N/A,,Clear,190,2012-11-17 09:53:00
3:53 AM,39.0,30.9,73,29.99,10.0,SSW,15.0,-,N/A,,Clear,210,2012-11-17 10:53:00
4:53 AM,37.9,30.0,73,29.98,10.0,SSW,12.7,-,N/A,,Clear,210,2012-11-17 11:53:00
5:53 AM,39.9,30.0,68,29.97,10.0,SSW,13.8,-,N/A,,Clear,200,2012-11-17 12:53:00
6:53 AM,39.9,30.0,68,29.97,10.0,South,16.1,-,N/A,,Clear,190,2012-11-17 13:53:00
7:53 AM,39.9,28.9,65,29.98,10.0,SSW,16.1,-,N/A,,Clear,200,2012-11-17 14:53:00
8:53 AM,41.0,30.0,65,29.98,10.0,SSW,10.4,-,N/A,,Clear,210,2012-11-17 15:53:00
9:53 AM,46.0,30.0,54,29.96,10.0,South,15.0,21.9,N/A,,Clear,190,2012-11-17 16:53:00
10:53 AM,46.9,30.9,54,29.94,10.0,South,15.0,-,N/A,,Overcast,190,2012-11-17 17:53:00
11:53 AM,50.0,32.0,50,29.90,10.0,South,17.3,21.9,N/A,,Clear,190,2012-11-17 18:53:00
12:53 PM,52.0,32.0,47,29.86,10.0,South,15.0,-,N/A,,Clear,190,2012-11-17 19:53:00
1:53 PM,53.1,30.9,43,29.83,10.0,South,19.6,-,N/A,,Clear,190,2012-11-17 20:53:00
2:53 PM,52.0,30.9,45,29.81,10.0,South,19.6,25.3,N/A,,Clear,180,2012-11-17 21:53:00
3:53 PM,50.0,30.9,48,29.81,10.0,South,15.0,-,N/A,,Clear,190,2012-11-17 22:53:00
4:53 PM,48.9,30.9,50,29.80,10.0,South,15.0,-,N/A,,Clear,180,2012-11-17 23:53:00
5:53 PM,48.0,30.9,52,29.78,10.0,South,17.3,-,N/A,,Clear,190,2012-11-18 00:53:00
6:53 PM,46.9,30.9,54,29.76,10.0,South,15.0,-,N/A,,Clear,180,2012-11-18 01:53:00
7:53 PM,46.9,32.0,56,29.75,10.0,South,13.8,-,N/A,,Clear,180,2012-11-18 02:53:00
8:53 PM,48.0,32.0,54,29.73,10.0,South,16.1,-,N/A,,Clear,180,2012-11-18 03:53:00
9:53 PM,48.0,32.0,54,29.70,10.0,South,17.3,-,N/A,,Clear,180,2012-11-18 04:53:00
10:53 PM,48.0,32.0,54,29.68,10.0,South,19.6,-,N/A,,Clear,190,2012-11-18 05:53:00
11:53 PM,48.2,33.8,58,29.64,10.0,South,13.8,-,N/A,,Clear,180,2012-11-18 06:53:00